Weather in Inderka

Russia / Penza Oblast     53°14′47″N   46°15′41″E
temp.,
°C
wind,
m/s
gust,
m/s
humid.,
%
clouds,
%
prec.,
mm/h
press.,
hPa
HPBL,
m
31 july, sat
sat3100:00+17sse3597100 1.6 1006124
03:00+17ssw399860 2.0 1006243
06:00+18sw3109675 0.0 1006357
09:00+23wsw477395 0.0 1007827
12:00+26wsw5755100 0.1 10071743
15:00+28w684513 0.1 10072337
18:00+24wnw366191 0.0 1008235
21:00+19nw22760 0.0 101015
1 august, sun
sun100:00+18s11783 0.0 101211
03:00+18s227856 0.0 101230
06:00+19sw2773100 0.0 1013166
09:00+25wsw4650100 0.0 1014551
12:00+28wsw474078 0.0 10131968
15:00+29w463619 0.0 10132305
18:00+26wnw2558100 0.0 1013123
21:00+20n117125 0.0 101411
2 august, mon
mon200:00+19se11745 0.0 101411
03:00+18sse22730 0.0 101512
06:00+20s22700 0.0 101547
09:00+28s23450 0.0 1014456
12:00+32s24334 0.0 10131678
15:00+33wsw262931 0.0 10123209
18:00+23e266238 0.5 1012203
21:00+20ese346528 0.6 101263
3 august, tue
tue300:00+20sse312655 0.0 1011202
03:00+19se312685 0.0 1010216
06:00+20sse210663 0.0 1010192
09:00+29s59385 0.0 1009514
12:00+33ssw58297 0.0 10081374
15:00+28wnw51145100 0.0 1008494
18:00+27n015787 0.0 100815
21:00+20nne1273100 0.0 101086
4 august, wed
wed400:00+20ssw2970100 0.0 1010306
03:00+18wsw2586100 0.0 1011205
06:00+18nw3788100 0.0 1012328
09:00+21nw45612 0.0 1013828
12:00+24nw45472 0.0 10131482
15:00+25nnw45420 0.0 10131820
18:00+23nnw35540 0.0 1014291
21:00+17nw22680 0.0 101528